Location: Ottawa
(45.4170°N, 75.7000°W)
Time: 12:45:05
(UTC-04:00)

OTV 5 (USA 277) - Visible Passes

Search period start: 16 October 2019 00:00
Search period end: 26 October 2019 00:00
Orbit: 310 x 324 km, 54.5° (Epoch: 08 October)

Date Brightness Start Highest point End Pass type
(mag) Time Alt. Az. Time Alt. Az. Time Alt. Az.
16 Oct ? 06:10:53 14° NW 06:12:52 34° NNE 06:15:26 10° E visible
17 Oct ? 04:54:19 12° NE 04:54:19 12° NE 04:54:45 10° ENE visible
17 Oct ? 06:25:13 14° NW 06:27:31 79° NE 06:30:14 10° ESE visible
18 Oct ? 05:08:44 20° ENE 05:08:44 20° ENE 05:10:00 10° E visible
18 Oct ? 06:39:38 11° WNW 06:42:00 38° SW 06:44:34 10° SSE visible
19 Oct ? 05:23:15 32° E 05:23:15 32° E 05:25:00 10° ESE visible
20 Oct ? 05:37:53 33° SSE 05:37:53 33° SSE 05:39:36 10° SE visible
21 Oct ? 05:52:40 16° S 05:52:40 16° S 05:53:36 10° SSE visible
